[[{"header":{"parameterUnit":"m.s-1","parameterCategory":1,"la1":30.2991,"la2":30.254,"lo1":-89.0895,"lo2":-89.0444,"dy":0.0017,"dx":0.0017,"nx":28,"ny":28,"refTime":"2023-10-18T21:00:00:Z","depth":0,"parameterNumber":2,"parameterNumberName":"U-component_of_WINDS"},"data":[0,0,0,0,0,0,0,0,0,0,0,0,0,0,0,0,0,0,0,0,0,0,0,0,0,0,0,0,0,0,0,0,0,0,0,0,0,0,0,0,0,0,0,0,0,0,0,0,0,0,0,0,0,0,0,0,0,0,0.9848,0.9849,0,0.9883,0.9883,0.9884,0.9891,0.9891,0.989,0.989,0.9921,0.9922,0.9923,0,0,0,0,0,0,0,0,0,0,0,0,0,0.9785,0.9786,0.9848,0.9849,0.9849,0.9883,0.9883,0.9884,0.9891,0.9891,0.989,0.989,0.9921,0.9922,0.9923,0,0,0,0,0,0,0,0,0,0,0,0,0,0.9815,0.9787,0.9848,0.9857,0.9858,0.9883,0.9883,0.9884,0.9891,0.9891,0.989,0.989,0.992,0.9922,0.9924,0.9941,0,0,0.9928,0.9929,0,0,0,0,0,0,0,0,0.9813,0.9817,0.9855,0.9856,0.9858,0.9882,0.9872,0.9903,0.9891,0.9878,0.989,0.989,0.9908,0.9911,0.9918,0.9942,0.9944,0.9929,0.993,0.993,0.9931,0,0,0,0,0,0,0,0.9811,0.9816,0.9862,0.9856,0.9857,0.9858,0.9862,0.9878,0.9895,0.9879,0.988,0.9884,0.9909,0.9916,0.9919,0.9944,0.9929,0.993,0.9931,0.9932,0.9984,0.9984,0,0,0,0,0,0,0.9808,0.9814,0.9861,0.9863,0.9834,0.9859,0.9864,0.9875,0.9895,0.9897,0.9885,0.9884,0.9914,0.9917,0.992,0.9941,0.993,0.9932,0.9933,0.9984,0.9984,0.9985,0,0,0,0,0,0,0.9807,0.9812,0.9859,0.9839,0.9845,0.9861,0.9873,0.9876,0.9883,0.9899,0.9901,0.9889,0.9914,0.9918,0.9936,0.9942,0.9932,0.9934,0.9983,0.9984,0.9984,0.9984,0,0,0,0,0,0,0.9805,0.9812,0.9819,0.9839,0.9846,0.9876,0.9874,0.9876,0.9886,0.9887,0.9904,0.9906,0.9914,0.9933,0.9937,0.9944,0.9935,0.9983,0.9983,0.9984,0.9984,0.9985,0.9986,0,0,0,0,0,0.9803,0.9817,0.982,0.9825,0.9856,0.9876,0.988,0.9889,0.9887,0.9894,0.9904,0.9906,0.9941,0.9935,0.994,0.9947,0.9982,0.9983,0.9984,0.9983,0.9985,0.9986,0,0,0,0,0,0,0.9796,0.982,0.9823,0.9844,0.9858,0.9877,0.9887,0.9891,0.9904,0.9904,0.9914,0.9918,0.9935,0.9943,0.9936,0.9965,0.9961,0.9963,0.9959,0.9961,0.9962,0.9959,0.9936,0,0,0,0,0,0.9797,0.9813,0.9832,0.9849,0.9856,0.987,0.9879,0.9886,0.99,0.9906,0.9917,0.993,0.9944,0.9953,0.9966,0.9985,0.9989,0.9993,0.9994,0.9994,0.9996,1.0006,1.0008,0.9988,0.9988,0.9988,0,0,0.9799,0.9814,0.9823,0.9848,0.986,0.9875,0.9875,0.9891,0.9902,0.9908,0.9926,0.9935,0.9949,0.9968,0.9977,0.9975,1.0002,0.9996,0.9996,0.9997,1.0007,1.0009,1.0011,0.9989,0.9988,0.9988,0,0,0.9811,0.9824,0.984,0.9852,0.987,0.988,0.9883,0.9902,0.9909,0.9928,0.9932,0.9945,0.9969,0.9979,0.9988,1.0005,1.0006,1.0009,1.0014,1.0024,1.0025,1.0027,1.0032,1.0034,1.001,1.001,1.001,0,0.981,0.9835,0.9847,0.9863,0.9873,0.9881,0.9896,0.9907,0.9928,0.9935,0.9933,0.9964,0.9975,0.9996,1.0,1.0007,1.001,1.0006,1.0024,1.0026,1.0027,1.0032,1.0035,1.001,1.001,1.001,1.001,0,0.9834,0.985,0.9861,0.9883,0.9895,0.991,0.9923,0.9933,0.9939,0.9948,0.9967,0.998,0.9997,1.0002,1.0007,1.0024,1.0022,1.0022,1.0019,1.0029,1.0034,1.0036,1.001,1.001,1.001,1.001,0,0,0.9841,0.9871,0.9874,0.9884,0.9906,0.9918,0.9934,0.9952,0.996,0.9974,0.9987,1.0008,1.0008,1.0018,1.0024,1.0033,1.0045,1.0032,1.0032,1.0033,1.0064,1.0063,1.0065,1.0047,1.0047,1.0047,1.0062,0,0.9855,0.9885,0.9896,0.992,0.9935,0.9943,0.9956,0.997,0.9979,0.9993,1.0002,1.0017,1.0016,1.0022,1.0032,1.0041,1.0051,1.004,1.0057,1.0058,1.0053,1.0068,1.0068,1.0081,1.0064,1.0065,1.0065,0,0.9874,0.9891,0.9917,0.9937,0.9944,0.9956,0.9973,0.9987,1.0002,1.0008,1.002,1.0025,1.0041,1.0037,1.0058,1.0051,1.0058,1.0064,1.0065,1.0066,1.0061,1.0069,1.0086,1.0087,1.0068,1.0068,1.0068,0,0.9877,0.9905,0.9925,0.9933,0.9957,0.9966,0.9976,0.9991,1.0001,1.0016,1.0023,1.0038,1.0047,1.0059,1.0068,1.0064,1.0088,1.0085,1.0092,1.0092,1.0096,1.0096,1.0114,1.0102,1.0102,1.0102,1.0102,0,0.9891,0.9906,0.9926,0.9938,0.9955,0.9968,0.9984,0.9994,1.0008,1.0021,1.0029,1.004,1.0053,1.0066,1.0073,1.0089,1.0093,1.0097,1.0099,1.0096,1.0096,1.0101,1.01,1.0103,1.0103,1.0103,1.0102,0,0.9896,0.991,0.9932,0.9953,0.9959,0.9971,0.9988,0.9999,1.0009,1.0026,1.003,1.0045,1.0061,1.0072,1.0092,1.0097,1.0114,1.0116,1.0109,1.011,1.0116,1.0115,1.0137,1.0141,1.0128,1.0128,1.0128,0,0.9903,0.9916,0.9939,0.9949,0.996,0.9976,0.9987,1.0,1.001,1.003,1.0038,1.0055,1.0069,1.0093,1.0105,1.012,1.0122,1.0129,1.0124,1.0121,1.0121,1.012,1.0121,1.0129,1.0129,1.0129,1.0129,0,0.9916,0.9922,0.9939,0.9958,0.9971,0.9986,1.0001,1.0008,1.0024,1.0035,1.0052,1.0063,1.0084,1.01,1.0117,1.0126,1.013,1.0131,1.0133,1.013,1.0126,1.0128,1.011,1.013,1.013,1.013,1.013,1.013,0.9922,0.9933,0.9952,0.997,0.9983,0.9997,1.0009,1.0021,1.0036,1.0055,1.0062,1.0079,1.0094,1.0117,1.0126,1.0139,1.0138,1.0142,1.0143,1.0143,1.0143,1.0125,1.0142,1.0142,1.0142,1.0142,1.0142,0,0.9934,0.9947,0.9963,0.9985,0.9999,1.0004,1.0021,1.0031,1.0047,1.0062,1.0076,1.0096,1.0111,1.0125,1.0141,1.0149,1.0151,1.0152,1.0152,1.0153,1.0143,1.0139,1.015,1.015,1.015,1.015,1.015,1.015,0.9942,0.9962,0.9971,0.9997,1.0009,1.0028,1.0037,1.0049,1.0061,1.0083,1.0097,1.0107,1.012,1.0138,1.0152,1.0155,1.0161,1.0162,1.0165,1.0155,1.0154,1.0153,1.015,1.0163,1.0163,1.0175,1.0175,1.0175]},{"header":{"parameterUnit":"m.s-1","parameterCategory":1,"la1":30.2991,"la2":30.254,"lo1":-89.0895,"lo2":-89.0444,"dy":0.0017,"dx":0.0017,"nx":28,"ny":28,"refTime":"2023-10-18T21:00:00:Z","depth":0,"parameterNumber":3,"parameterNumberName":"V-component_of_WINDS"},"data":[0,0,0,0,0,0,0,0,0,0,0,0,0,0,0,0,0,0,0,0,0,0,0,0,0,0,0,0,0,0,0,0,0,0,0,0,0,0,0,0,0,0,0,0,0,0,0,0,0,0,0,0,0,0,0,0,0,0,4.0172,4.0171,0,4.0098,4.0097,4.0097,3.9986,3.9984,3.9982,3.998,3.9906,3.9906,3.9906,0,0,0,0,0,0,0,0,0,0,0,0,0,4.0217,4.0217,4.0172,4.0171,4.017,4.0098,4.0097,4.0096,3.9987,3.9984,3.9982,3.998,3.9906,3.9906,3.9906,0,0,0,0,0,0,0,0,0,0,0,0,0,4.0176,4.0217,4.0172,4.0107,4.01,4.0099,4.0097,4.0096,3.9987,3.9984,3.9981,3.9978,3.9906,3.9906,3.9906,3.9963,0,0,3.9905,3.9905,0,0,0,0,0,0,0,0,4.0179,4.0175,4.0117,4.0111,4.0104,4.0048,4.0086,4.0051,3.9988,4.003,3.998,3.9977,3.9956,3.9951,3.9944,3.9959,3.9956,3.9905,3.9905,3.9905,3.9905,0,0,0,0,0,0,0,4.0182,4.0177,4.0143,4.0116,4.0108,4.0081,4.0072,4.0079,4.001,4.0026,4.0018,4.0011,3.9952,3.9945,3.9941,3.9955,3.9905,3.9905,3.9905,3.9904,4.0011,4.0014,0,0,0,0,0,0,4.0194,4.018,4.0145,4.0141,4.0135,4.0082,4.0072,4.0069,4.001,3.9998,4.0013,4.0006,3.9946,3.9942,3.9938,4.0,3.9905,3.9904,3.9904,4.0008,4.0012,4.0015,0,0,0,0,0,0,4.0196,4.0192,4.0148,4.0158,4.015,4.0085,4.0082,4.0069,4.0062,4.0,3.9987,4.0019,3.9944,3.9939,3.9957,3.9996,3.9904,3.9904,4.0005,4.0009,4.0013,4.0124,0,0,0,0,0,0,4.0197,4.0193,4.0214,4.0159,4.015,4.0168,4.0085,4.007,4.0062,4.0051,4.0002,3.9991,3.9941,3.9958,3.9957,3.9994,3.9904,4.0001,4.0007,4.0012,4.0117,4.0132,4.0145,0,0,0,0,0,4.0199,4.0249,4.0216,4.0212,4.0175,4.0171,4.0166,4.0107,4.0065,4.0086,4.0046,3.9992,3.9992,3.9961,3.9958,3.9996,3.9998,4.0005,4.0011,4.0111,4.0129,4.0145,0,0,0,0,0,0,4.0311,4.0241,4.0203,4.0237,4.0211,4.0152,4.0176,4.0129,4.0114,4.0105,4.0034,4.0024,4.0051,4.0025,3.9992,4.0047,3.9987,3.9993,4.0063,4.008,4.0094,4.0099,3.9904,0,0,0,0,0,4.034,4.0342,4.028,4.0316,4.0304,4.0243,4.0239,4.0196,4.0166,4.0155,4.0116,4.0089,4.0082,4.008,4.007,4.0113,4.0099,4.0137,4.0151,4.0163,4.0169,4.0188,4.0204,4.0037,4.0037,4.0037,0,0,4.0399,4.036,4.0366,4.0337,4.0312,4.0315,4.0234,4.0242,4.0244,4.0156,4.017,4.0141,4.0106,4.0136,4.0147,4.0116,4.0212,4.0172,4.0181,4.0181,4.0197,4.0213,4.0227,4.0041,4.0041,4.004,0,0,4.0508,4.048,4.0505,4.0481,4.0443,4.0402,4.0409,4.0357,4.0334,4.0347,4.0281,4.0282,4.0272,4.0249,4.0237,4.0336,4.0286,4.0335,4.0408,4.0427,4.0441,4.0452,4.0486,4.0499,4.0342,4.0342,4.0342,0,4.0586,4.0589,4.0525,4.0536,4.0525,4.0444,4.047,4.0449,4.0411,4.0405,4.037,4.0355,4.0326,4.0349,4.0373,4.0366,4.037,4.034,4.0444,4.0455,4.0464,4.0496,4.0509,4.0348,4.0347,4.0347,4.0346,0,4.0686,4.0689,4.0714,4.0678,4.067,4.0688,4.0627,4.0626,4.0584,4.0546,4.056,4.0522,4.0503,4.0505,4.0464,4.0522,4.0503,4.0457,4.0395,4.0487,4.0516,4.0528,4.0357,4.0355,4.0353,4.0351,0,0,4.0864,4.0792,4.0802,4.0784,4.0736,4.0737,4.0751,4.0732,4.0732,4.0708,4.0717,4.0711,4.0667,4.0653,4.0609,4.0626,4.0705,4.0577,4.0575,4.0601,4.0764,4.0799,4.0814,4.0671,4.0673,4.0675,4.0767,0,4.0963,4.0983,4.0926,4.096,4.0962,4.0885,4.0897,4.0869,4.0834,4.0829,4.079,4.0786,4.0729,4.072,4.0733,4.0693,4.0736,4.0685,4.0679,4.0679,4.0689,4.0829,4.0866,4.0955,4.0778,4.078,4.0781,0,4.1082,4.1063,4.1098,4.1046,4.1044,4.1057,4.1033,4.1031,4.0996,4.0969,4.0953,4.0901,4.091,4.0851,4.0862,4.0829,4.0822,4.0802,4.0804,4.0801,4.0736,4.0829,4.0982,4.0995,4.0798,4.0797,4.0795,0,4.1207,4.119,4.1209,4.1196,4.1137,4.1147,4.1123,4.1085,4.1077,4.1057,4.105,4.1032,4.1022,4.1008,4.0952,4.0914,4.097,4.0906,4.0947,4.0948,4.0962,4.0962,4.1115,4.0959,4.0959,4.0959,4.0959,0,4.1323,4.1347,4.1264,4.1275,4.1299,4.1233,4.1259,4.1227,4.1194,4.1197,4.113,4.1134,4.106,4.1056,4.1012,4.1027,4.1023,4.1001,4.0989,4.1007,4.101,4.1002,4.0994,4.0962,4.0962,4.0961,4.096,0,4.1467,4.1413,4.1427,4.137,4.1356,4.1376,4.1326,4.1334,4.1294,4.1299,4.1296,4.1233,4.1225,4.1167,4.1146,4.1116,4.1148,4.1124,4.1159,4.1151,4.1195,4.1192,4.1348,4.1365,4.12,4.1201,4.1203,0,4.1545,4.1561,4.1506,4.1503,4.1481,4.1478,4.1469,4.1403,4.1397,4.1358,4.137,4.1356,4.1341,4.1331,4.1283,4.1266,4.1241,4.1297,4.1238,4.1254,4.124,4.124,4.124,4.1309,4.1311,4.1313,4.1315,0,4.1688,4.166,4.1649,4.1629,4.162,4.1601,4.1578,4.158,4.1507,4.1503,4.1493,4.1482,4.1459,4.1445,4.142,4.1394,4.1342,4.1333,4.1342,4.136,4.138,4.1369,4.1193,4.133,4.1329,4.1327,4.1327,4.1326,4.1801,4.1811,4.1773,4.1763,4.1739,4.1719,4.1722,4.1683,4.1674,4.165,4.1612,4.1607,4.1571,4.1531,4.1509,4.1504,4.1474,4.1486,4.1489,4.1493,4.1502,4.1381,4.1499,4.1498,4.1498,4.1497,4.1497,0,4.1939,4.1911,4.1903,4.1872,4.1864,4.1816,4.1788,4.1784,4.1781,4.1751,4.1738,4.1726,4.1712,4.1663,4.1643,4.1648,4.1624,4.1646,4.1644,4.1639,4.1531,4.1525,4.1665,4.1665,4.1665,4.1665,4.1665,4.1665,4.2011,4.2026,4.1993,4.1995,4.1966,4.1961,4.1949,4.1929,4.1905,4.1895,4.1883,4.1851,4.1813,4.179,4.1775,4.176,4.1756,4.1785,4.1763,4.1663,4.1647,4.1631,4.1625,4.1785,4.1785,4.1871,4.1872,4.1873]}]]